Volver al catálogo

THOR ABLESTAR DEB

ActivoLEO
NORAD 48810·DEBRIS·🇺🇸 United States

Lanzado Jun 29, 1961 desde Cape Canaveral Space Force Station

Loading…

Próximos Pases (próximas 24 horas)

TLE

ActualizadoSource: Space-Track

Época: Sep 14, 2026, 05:43 UTC

1 48810U 61015MN  26257.23882450 -.00000022  00000-0  41148-4 0  9995
2 48810  66.8541  62.1485 0127350  46.3135 126.6155 13.89385957649721

Sigue THOR ABLESTAR DEB en tiempo real con AllMySat

Download on the App Store